EW8655 Weather Reports


Display with metric or nautical units.
time (UTC)temp
F
wind
direction
speed
MPH
gust
MPH
rain 1hr
in
rain 24hr
in
rain mn
in
humidity
%
barometer
mb
20260904081007 70 276 5.0 7.0 0.00 0.00 0.00 81 1010.1
20260904080508 70 287 5.0 7.0 0.00 0.00 0.00 81 1010.1
20260904080007 70 278 5.0 7.0 0.00 0.00 0.00 81 1010.1
20260904075507 70 284 7.0 9.0 0.00 0.00 0.00 81 1010.1
20260904075007 70 274 7.0 9.0 0.00 0.00 0.00 81 1010.1
20260904074507 70 280 7.0 9.0 0.00 0.00 0.00 80 1010.1
20260904074008 71 266 5.0 9.0 0.00 0.00 0.00 80 1010.1
20260904073508 71 271 5.0 7.0 0.00 0.00 0.00 81 1010.1
20260904073008 71 276 5.0 7.0 0.00 0.00 0.00 80 1010.1
20260904072507 71 280 5.0 9.0 0.00 0.00 0.00 80 1010.1
20260904072008 71 290 5.0 9.0 0.00 0.00 0.00 81 1010.1
20260904071507 71 283 5.0 9.0 0.00 0.00 0.00 83 1010.1
20260904071008 70 287 7.0 9.0 0.00 0.00 0.00 83 1010.1
20260904070508 70 290 5.0 7.0 0.00 0.00 0.00 83 1010.1
20260904070007 70 282 5.0 7.0 0.00 0.00 0.00 83 1010.1
20260904065007 70 274 5.0 7.0 0.00 0.00 0.00 84 1010.1
20260904064507 70 274 5.0 7.0 0.00 0.00 0.00 83 1010.1
20260904064007 70 264 7.0 7.0 0.00 0.00 0.00 83 1010.1
20260904063507 70 271 6.0 7.0 0.00 0.00 0.00 83 1010.1
20260904063007 71 270 5.0 7.0 0.00 0.00 0.00 83 1010.1
20260904062007 71 293 5.0 7.0 0.00 0.00 0.00 83 1010.1
20260904061507 71 288 5.0 7.0 0.00 0.00 0.00 83 1010.1
20260904061008 71 272 5.0 7.0 0.00 0.00 0.00 83 1010.1
20260904060007 71 267 5.0 7.0 0.00 0.00 0.00 83 1010.1
20260904055507 71 259 5.0 7.0 0.00 0.00 0.00 83 1010.1
20260904055008 71 262 5.0 7.0 0.00 0.00 0.00 83 1010.1
20260904054507 71 279 5.0 7.0 0.00 0.00 0.00 83 1010.1
20260904054007 71 279 5.0 7.0 0.00 0.00 0.00 83 1010.1
20260904053507 71 276 5.0 7.0 0.00 0.00 0.00 83 1010.1
20260904053007 71 288 5.0 7.0 0.00 0.00 0.00 84 1010.1
20260904052007 71 270 5.0 7.0 0.00 0.00 0.00 85 1010.1
20260904051507 71 269 5.0 7.0 0.00 0.00 0.00 86 1010.1
20260904051007 71 275 7.0 9.0 0.00 0.00 0.00 87 1010.5
20260904050008 71 276 5.0 9.0 0.00 0.00 0.00 89 1010.1
20260904045509 71 273 5.0 7.0 0.00 0.00 0.00 89 1010.1
20260904045008 71 264 5.0 7.0 0.00 0.00 0.00 89 1010.2
20260904044507 71 262 5.0 7.0 0.00 0.00 0.00 88 1010.1
20260904044007 71 258 7.0 7.0 0.00 0.00 0.00 88 1010.1
20260904043008 71 271 5.0 7.0 0.00 0.00 0.00 87 1010.1
20260904042507 71 260 5.0 7.0 0.00 0.00 0.00 87 1010.1
20260904041508 71 256 5.0 5.0 0.00 0.00 0.00 86 1010.1
20260904041008 72 259 5.0 5.0 0.00 0.00 0.00 86 1010.1
20260904040508 72 271 5.0 7.0 0.00 0.00 0.00 87 1010.1
20260904040007 72 271 5.0 7.0 0.00 0.00 0.00 88 1010.1
20260904035007 71 264 5.0 5.0 0.00 0.00 0.00 89 1010.1
20260904034506 71 256 5.0 5.0 0.00 0.00 0.00 89 1010.1
20260904032507 71 266 5.0 5.0 0.00 0.00 0.00 87 1010.1
20260904032007 71 267 5.0 5.0 0.00 0.00 0.00 87 1010.1
20260904031507 72 245 5.0 5.0 0.00 0.00 0.00 86 1010.1
20260904031007 72 241 5.0 5.0 0.00 0.00 0.00 85 1010.1
20260904030007 73 263 2.0 5.0 0.00 0.00 0.00 84 1010.1
20260904025507 73 272 5.0 5.0 0.00 0.00 0.00 84 1010.1
20260904025007 73 267 2.0 5.0 0.00 0.00 0.00 83 1010.1
20260904024506 73 226 2.0 5.0 0.00 0.00 0.00 83 1010.1
20260904024007 73 233 5.0 5.0 0.00 0.00 0.00 84 1010.1
20260904023507 73 240 5.0 5.0 0.00 0.00 0.00 84 1010.1
20260904023007 74 235 2.0 5.0 0.00 0.00 0.00 83 1010.1
20260904022507 73 265 2.0 5.0 0.00 0.00 0.00 84 1010.1
20260904022007 73 273 2.0 5.0 0.00 0.00 0.00 85 1010.1
20260904021507 73 276 2.0 5.0 0.00 0.00 0.00 84 1010.1
20260904021007 74 272 4.0 5.0 0.00 0.00 0.00 83 1010.1
20260904020007 75 267 0.0 5.0 0.00 0.00 0.00 81 1010.1
20260904015007 75 1 0.0 2.0 0.00 0.00 0.00 81 1010.1
20260904014507 75 5 0.0 2.0 0.00 0.00 0.00 80 1010.1
20260904014007 75 332 0.0 2.0 0.00 0.00 0.00 80 1010.1
20260904013507 75 13 0.0 5.0 0.00 0.00 0.00 80 1010.1
20260904013007 75 312 1.0 5.0 0.00 0.00 0.00 79 1010.1
20260904012507 75 16 2.0 5.0 0.00 0.00 0.00 80 1010.1
20260904012007 75 309 0.0 5.0 0.00 0.00 0.00 79 1010.1
20260904011007 76 308 0.0 5.0 0.00 0.00 0.00 80 1010.1
20260904010507 76 332 0.0 5.0 0.00 0.00 0.00 81 1010.1
20260904010007 76 319 0.0 2.0 0.00 0.00 0.00 81 1010.1
20260904005506 76 329 0.0 5.0 0.00 0.00 0.00 82 1010.1
20260904005007 76 325 2.0 5.0 0.00 0.00 0.00 83 1010.1
20260904004507 76 278 2.0 5.0 0.00 0.00 0.00 83 1010.1
20260904004007 76 279 0.0 5.0 0.00 0.00 0.00 84 1010.1
20260904003507 76 295 0.0 2.0 0.00 0.00 0.00 86 1010.1
20260904002007 75 350 2.0 9.0 0.00 0.00 0.00 87 1009.8
20260904001007 75 3 0.0 5.0 0.00 0.00 0.00 87 1009.1
20260904000507 76 288 0.0 2.0 0.00 0.00 0.00 87 1009.1
20260904000006 75 213 0.0 2.0 0.00 0.00 0.00 87 1009.1
20260903235507 75 194 0.0 5.0 0.00 0.00 0.00 87 1009.1
20260903235007 75 194 0.0 5.0 0.00 0.00 0.00 87 1009.1
20260903234506 75 193 0.0 5.0 0.00 0.00 0.00 87 1009.1
20260903234007 75 184 1.0 2.0 0.00 0.00 0.00 86 1009.1
20260903233507 75 203 2.0 2.0 0.00 0.00 0.00 86 1009.1
20260903233007 75 194 0.0 2.0 0.00 0.00 0.00 86 1009.1
20260903232506 75 153 0.0 5.0 0.00 0.00 0.00 86 1009.1
20260903232007 75 188 2.0 5.0 0.00 0.00 0.00 85 1009.1
20260903231506 75 196 2.0 5.0 0.00 0.00 0.00 85 1009.4
20260903231007 75 185 0.0 5.0 0.00 0.00 0.00 85 1009.1
20260903230507 75 184 2.0 2.0 0.00 0.00 0.00 85 1009.1
20260903230007 75 194 0.0 5.0 0.00 0.00 0.00 85 1009.1
20260903225506 75 199 0.0 5.0 0.00 0.00 0.00 85 1009.1
20260903225007 75 169 0.0 0.0 0.00 0.00 0.00 85 1009.1
20260903224506 75 145 0.0 0.0 0.00 0.00 0.00 85 1009.1
20260903224007 75 105 0.0 0.0 0.00 0.00 0.00 85 1009.1
20260903223507 75 116 0.0 0.0 0.00 0.00 0.00 85 1009.1
20260903223007 75 114 0.0 0.0 0.00 0.00 0.00 84 1009.1
20260903222507 76 105 0.0 0.0 0.00 0.00 0.00 83 1009.1
20260903222007 76 87 0.0 5.0 0.00 0.00 0.00 83 1009.1
20260903221507 75 94 0.0 5.0 0.00 0.00 0.00 83 1009.1
20260903221007 75 78 2.0 5.0 0.00 0.00 0.00 83 1008.6
20260903220507 76 102 0.0 2.0 0.00 0.00 0.00 83 1008.1
20260903220006 76 85 0.0 2.0 0.00 0.00 0.00 82 1008.1
20260903215507 77 58 0.0 0.0 0.00 0.00 0.00 81 1008.1
20260903214508 77 40 0.0 0.0 0.00 0.00 0.00 81 1008.1
20260903214007 77 45 0.0 2.0 0.00 0.00 0.00 82 1008.5
20260903213509 77 39 0.0 2.0 0.00 0.00 0.00 81 1009.1
20260903211506 78 51 0.0 0.0 0.00 0.00 0.00 81 1009.1
20260903211008 78 48 0.0 0.0 0.00 0.00 0.00 82 1009.1
20260903210507 77 35 0.0 0.0 0.00 0.00 0.00 82 1009.1
20260903210006 77 46 0.0 2.0 0.00 0.00 0.00 82 1009.1
20260903205008 77 44 0.0 2.0 0.00 0.00 0.00 83 1009.1
20260903204507 77 46 0.0 2.0 0.00 0.00 0.00 83 1009.1
20260903204008 77 47 0.0 2.0 0.00 0.00 0.00 83 1009.1
20260903203507 77 42 0.0 2.0 0.00 0.00 0.00 83 1009.1
20260903203007 77 44 0.0 2.0 0.00 0.00 0.00 84 1009.1
20260903202008 77 13 0.0 5.0 0.00 0.00 0.00 84 1009.1
20260903201506 76 23 2.0 5.0 0.00 0.00 0.00 85 1009.1
20260903201008 76 15 2.0 5.0 0.00 0.00 0.00 85 1009.1
20260903200506 76 27 2.0 5.0 0.00 0.00 0.00 85 1010.1
20260903200006 75 8 2.0 7.0 0.00 0.00 0.00 85 1009.6
20260903195506 75 11 3.0 7.0 0.00 0.00 0.00 86 1009.6
20260903195008 75 8 5.0 7.0 0.00 0.00 0.00 86 1010.0
20260903194507 75 17 5.0 7.0 0.00 0.00 0.00 86 1009.6
20260903194007 75 2 5.0 7.0 0.00 0.00 0.00 86 1009.2
20260903193507 75 19 5.0 7.0 0.00 0.00 0.00 86 1010.1
20260903193007 75 17 5.0 9.0 0.00 0.00 0.00 86 1010.1
20260903192008 75 27 7.0 9.0 0.00 0.00 0.00 86 1010.1
20260903191506 75 18 7.0 9.0 0.00 0.00 0.00 86 1010.1
20260903191007 75 26 7.0 9.0 0.00 0.00 0.00 86 1010.1
20260903190507 75 2 7.0 9.0 0.00 0.00 0.00 86 1010.1
20260903190006 75 25 5.0 9.0 0.00 0.00 0.00 86 1010.1
20260903185506 75 21 5.0 9.0 0.00 0.00 0.00 86 1010.1
20260903185007 75 11 6.0 9.0 0.00 0.00 0.00 85 1010.1
20260903184506 75 15 5.0 9.0 0.00 0.00 0.00 86 1010.1
20260903184007 75 16 5.0 9.0 0.00 0.00 0.00 86 1010.1
20260903183507 75 32 5.0 9.0 0.00 0.00 0.00 86 1010.1
20260903183007 75 338 3.0 9.0 0.00 0.00 0.00 87 1010.1
20260903182506 75 353 3.0 9.0 0.00 0.00 0.00 87 1010.1
20260903182008 75 357 5.0 9.0 0.00 0.00 0.00 87 1010.1
20260903181506 75 3 5.0 9.0 0.00 0.00 0.00 87 1010.1
20260903180006 75 23 7.0 12.0 0.00 0.00 0.00 88 1010.1
20260903175506 75 19 7.0 9.0 0.00 0.00 0.00 88 1010.1
20260903175007 75 32 5.0 9.0 0.00 0.00 0.00 88 1010.1
20260903174506 75 5 5.0 7.0 0.00 0.00 0.00 88 1010.1
20260903173506 76 48 2.0 7.0 0.00 0.00 0.00 88 1010.1
20260903173007 75 3 3.0 9.0 0.00 0.00 0.00 89 1010.1
20260903172008 75 32 5.0 9.0 0.00 0.00 0.00 89 1010.1
20260903171506 75 31 7.0 9.0 0.00 0.00 0.00 88 1010.1
20260903170506 75 15 4.0 7.0 0.00 0.00 0.00 88 1010.1
20260903165505 75 21 5.0 7.0 0.00 0.00 0.00 87 1010.1
20260903165006 75 16 5.0 7.0 0.00 0.00 0.00 87 1010.1
20260903164505 75 6 5.0 7.0 0.00 0.00 0.00 87 1010.1
20260903164007 76 16 2.0 5.0 0.00 0.00 0.00 86 1010.1
20260903163506 76 22 2.0 7.0 0.00 0.00 0.00 86 1010.1
20260903163006 75 35 4.0 7.0 0.00 0.00 0.00 86 1010.1
20260903162006 76 23 2.0 7.0 0.00 0.00 0.00 84 1010.1
20260903161506 76 26 2.0 7.0 0.00 0.00 0.00 83 1010.1
20260903161006 77 4 2.0 7.0 0.00 0.00 0.00 83 1010.1
20260903160506 76 9 5.0 7.0 0.00 0.00 0.00 80 1010.1
20260903160005 77 26 5.0 7.0 0.00 0.00 0.00 78 1010.1
20260903155506 78 13 3.0 7.0 0.00 0.00 0.00 72 1010.1
20260903155007 79 258 5.0 7.0 0.00 0.00 0.00 69 1010.1
20260903154505 79 235 7.0 9.0 0.00 0.00 0.00 71 1010.1
20260903154007 79 250 7.0 9.0 0.00 0.00 0.00 73 1010.1
20260903153507 79 234 9.0 14.0 0.00 0.00 0.00 73 1010.1
20260903152506 78 227 7.0 9.0 0.00 0.00 0.00 76 1010.1
20260903152006 78 241 7.0 9.0 0.00 0.00 0.00 76 1010.1
20260903151505 78 285 9.0 9.0 0.00 0.00 0.00 76 1010.1
20260903151007 77 269 7.0 12.0 0.00 0.00 0.00 77 1010.1
20260903145505 77 245 9.0 12.0 0.00 0.00 0.00 79 1010.1
20260903145006 77 251 7.0 9.0 0.00 0.00 0.00 81 1010.1
20260903144506 77 254 7.0 9.0 0.00 0.00 0.00 83 1010.1
20260903144007 77 239 9.0 9.0 0.00 0.00 0.00 82 1010.1
20260903143506 77 245 7.0 9.0 0.00 0.00 0.00 82 1010.1
20260903143006 77 251 9.0 12.0 0.00 0.00 0.00 82 1010.1
20260903142506 77 247 7.0 12.0 0.00 0.00 0.00 83 1010.1
20260903142007 77 257 6.0 12.0 0.00 0.00 0.00 85 1010.1
20260903141506 77 266 7.0 9.0 0.00 0.00 0.00 85 1010.1
20260903141006 76 270 6.0 7.0 0.00 0.00 0.00 86 1010.1
20260903140506 76 264 6.0 7.0 0.00 0.00 0.00 87 1010.1
20260903140005 75 278 5.0 9.0 0.00 0.00 0.00 88 1010.1
20260903135006 75 269 7.0 14.0 0.00 0.00 0.00 90 1010.1
20260903134505 75 271 9.0 14.0 0.00 0.00 0.00 90 1010.1
20260903134006 74 254 9.0 14.0 0.00 0.00 0.00 91 1010.1
20260903133006 74 253 7.0 9.0 0.00 0.00 0.00 92 1010.1
20260903132006 74 258 7.0 12.0 0.00 0.00 0.00 92 1011.1
20260903131505 74 264 9.0 12.0 0.00 0.00 0.00 92 1011.1
20260903131006 73 262 9.0 12.0 0.00 0.00 0.00 93 1011.1
20260903130506 73 259 9.0 12.0 0.00 0.00 0.00 93 1011.1
20260903130006 73 248 9.0 12.0 0.00 0.00 0.00 93 1011.1
20260903125506 73 253 9.0 12.0 0.00 0.00 0.00 94 1011.1
20260903125006 73 248 9.0 14.0 0.00 0.00 0.00 94 1011.3
20260903124505 73 251 9.0 14.0 0.00 0.00 0.00 94 1011.1
20260903124007 73 259 9.0 14.0 0.00 0.00 0.00 94 1011.1
20260903123506 73 259 9.0 12.0 0.00 0.00 0.00 94 1011.1
20260903123006 72 254 9.0 12.0 0.00 0.00 0.00 95 1011.1
20260903122505 72 262 9.0 12.0 0.00 0.00 0.00 95 1011.1
20260903121506 72 261 7.0 9.0 0.00 0.00 0.00 95 1011.1
20260903120506 72 264 7.0 9.0 0.00 0.00 0.00 96 1010.1
20260903120006 71 273 7.0 9.0 0.00 0.00 0.00 96 1010.1
20260903115505 71 263 7.0 9.0 0.00 0.00 0.00 96 1010.1
20260903115007 71 253 7.0 9.0 0.00 0.00 0.00 97 1010.1
20260903114505 71 242 7.0 9.0 0.00 0.00 0.00 97 1010.1
20260903114010 71 252 7.0 9.0 0.00 0.00 0.00 97 1010.1
20260903113506 71 249 7.0 9.0 0.00 0.00 0.00 97 1010.1
20260903113006 71 244 7.0 9.0 0.00 0.00 0.00 97 1010.1
20260903112506 71 240 7.0 9.0 0.00 0.00 0.00 97 1010.1
20260903112007 71 239 7.0 9.0 0.00 0.00 0.00 97 1010.1
20260903111505 71 242 7.0 9.0 0.00 0.00 0.00 97 1010.1
20260903110506 70 254 7.0 9.0 0.00 0.00 0.00 98 1010.1
20260903110006 70 250 7.0 7.0 0.00 0.00 0.00 98 1010.1
20260903105007 71 241 7.0 7.0 0.00 0.00 0.00 99 1010.1
20260903104505 71 238 7.0 7.0 0.00 0.00 0.00 99 1010.1
20260903104007 71 242 7.0 7.0 0.00 0.00 0.00 99 1010.1
20260903103506 71 237 7.0 7.0 0.00 0.00 0.00 99 1010.1
20260903103006 71 236 7.0 7.0 0.00 0.00 0.00 99 1010.1
20260903102505 71 245 7.0 7.0 0.00 0.00 0.00 99 1010.1
20260903102007 71 240 6.0 7.0 0.00 0.00 0.00 99 1010.1
20260903101006 71 229 7.0 7.0 0.00 0.00 0.00 100 1010.1
20260903100506 71 233 5.0 7.0 0.00 0.00 0.00 100 1010.1
20260903100005 71 230 5.0 7.0 0.00 0.00 0.00 100 1010.1
20260903095506 71 229 7.0 7.0 0.00 0.00 0.00 100 1010.1
20260903094507 71 223 7.0 7.0 0.00 0.00 0.00 100 1009.2
20260903094008 71 224 7.0 7.0 0.00 0.00 0.00 100 1010.1
20260903093508 71 224 7.0 7.0 0.00 0.00 0.00 100 1010.1
20260903093008 70 219 7.0 7.0 0.00 0.00 0.00 100 1010.1
20260903092507 70 227 5.0 7.0 0.00 0.00 0.00 100 1010.1
20260903091507 70 219 5.0 5.0 0.00 0.00 0.00 100 1010.1
20260903091009 70 234 2.0 5.0 0.00 0.00 0.00 100 1010.1
20260903090508 70 228 5.0 5.0 0.00 0.00 0.00 100 1010.1
20260903090008 70 211 5.0 5.0 0.00 0.00 0.00 100 1010.1
20260903085507 70 227 2.0 5.0 0.00 0.00 0.00 100 1010.1
20260903084507 70 193 5.0 5.0 0.00 0.00 0.00 100 1010.1
20260903084009 70 198 5.0 5.0 0.00 0.00 0.00 100 1010.1
20260903083009 70 177 2.0 5.0 0.00 0.00 0.00 100 1010.1
20260903082507 70 214 0.0 2.0 0.00 0.00 0.00 100 1010.1
20260903082008 70 236 0.0 0.0 0.00 0.00 0.00 100 1010.1